GFSNW_sfc_wetblb_057.txt.gz
Wetbulb
51.37 51.50 52.22 52.19 51.45 50.22 45.60 41.80 41.48 47.97 48.10 39.74 36.63 36.19 40.52 45.57 44.93 46.21 45.38 44.86 44.01 42.41 43.41 41.40 41.46 43.53 47.16 50.74 48.43 43.10 42.44 39.88 38.79 42.19 45.88 48.58 43.86 41.64 40.99 37.69 35.69 36.86 37.90 40.26
51.16 51.73 51.85 51.86 51.25 49.84 43.78 37.82 41.78 50.67 45.80 36.35 36.38 38.56 42.37 44.63 43.16 43.61 43.44 44.22 45.60 44.66 42.07 38.48 43.18 45.74 49.74 51.22 51.45 45.72 45.20 38.21 36.27 39.18 41.88 44.19 44.45 44.51 41.95 39.44 37.86 37.93 37.95 40.27
51.11 51.47 51.94 51.79 51.54 50.78 45.18 40.46 43.03 44.22 42.80 39.25 39.27 38.48 40.02 41.12 47.17 45.01 45.40 44.98 44.92 42.42 40.43 40.88 41.08 44.04 48.75 49.97 52.10 59.19 50.02 38.63 38.72 36.53 39.34 43.82 44.40 46.50 45.77 41.60 38.55 38.40 39.69 42.96
51.39 51.05 51.77 52.13 51.63 50.65 43.35 40.89 41.03 44.18 39.45 41.37 40.90 40.80 41.81 41.22 41.10 46.12 44.90 41.97 44.43 42.59 37.89 39.07 39.73 44.31 45.91 48.40 53.23 50.55 45.97 38.91 42.16 41.82 45.08 45.71 45.74 46.23 46.69 43.24 42.06 41.26 42.74 46.86
51.41 50.90 51.54 51.93 51.21 49.50 42.75 40.97 43.30 45.13 43.97 42.24 42.05 40.84 40.41 42.54 43.94 44.48 44.27 41.70 44.67 42.81 39.88 41.55 41.42 44.35 40.91 41.64 46.61 44.45 46.90 42.76 41.15 39.32 45.98 47.09 45.92 47.49 48.15 47.67 47.26 46.24 48.32 48.32
51.43 50.84 50.77 51.59 50.73 46.38 39.93 45.35 47.58 44.77 43.04 42.67 39.80 39.83 43.06 44.84 45.87 47.06 47.76 47.73 45.33 46.07 48.30 49.37 46.55 46.99 47.07 44.13 44.94 43.48 45.06 42.25 42.00 39.98 44.12 44.49 39.33 44.73 46.66 47.56 48.78 48.38 45.67 49.55
51.36 51.03 50.56 51.20 50.99 47.29 40.69 40.35 44.10 41.05 40.24 41.43 43.72 45.18 45.14 45.98 46.99 44.35 47.83 47.19 46.31 50.41 52.21 50.89 46.25 45.26 45.63 45.93 44.03 44.36 42.49 40.66 43.01 41.00 40.41 34.21 43.00 49.47 50.81 51.20 54.25 53.60 50.51 51.31
51.37 51.26 50.37 50.69 51.32 50.35 41.79 39.54 42.66 40.46 39.00 42.71 44.28 44.77 44.97 45.85 45.74 46.79 48.14 50.62 49.52 48.68 48.83 43.59 40.28 40.49 40.95 43.12 45.74 44.20 43.36 41.77 38.36 38.18 37.08 42.11 47.92 51.46 50.73 47.33 47.90 54.97 53.08 53.35
51.37 51.34 50.44 50.29 50.93 50.05 41.62 39.56 43.37 40.72 39.19 40.56 45.99 43.42 44.15 42.27 42.14 46.20 49.16 50.69 49.82 48.82 43.61 42.64 35.98 35.28 38.35 39.39 42.53 40.81 42.70 41.43 40.38 38.65 34.82 35.12 44.63 56.28 58.07 54.27 44.66 54.67 55.20 54.54
51.45 51.39 50.27 50.37 50.54 49.97 44.30 40.15 41.44 40.82 38.43 42.16 42.13 41.30 41.88 44.57 42.83 42.75 43.42 44.51 48.84 47.51 41.37 40.75 39.28 38.09 42.58 38.37 36.62 37.10 37.39 37.28 37.74 37.87 36.80 41.59 51.87 54.49 57.09 43.44 43.32 53.48 54.57 54.23
51.51 51.30 50.26 50.31 50.16 50.10 44.71 40.82 42.56 41.88 37.71 39.64 43.85 45.93 41.42 41.79 42.28 40.09 42.25 45.62 45.93 45.66 43.50 40.89 38.98 39.69 42.71 41.26 43.58 41.26 40.53 40.27 37.41 37.61 35.42 36.32 53.82 53.96 47.74 49.86 52.36 55.10 56.18 57.43
51.66 51.33 50.31 50.20 50.01 49.61 47.32 39.69 44.20 45.68 41.70 41.14 43.24 46.93 48.11 46.45 44.74 42.94 42.47 43.84 43.98 46.77 43.62 43.91 43.23 43.90 43.89 41.97 40.73 45.85 42.64 44.46 42.54 45.31 43.93 50.88 53.82 51.59 53.37 52.30 52.94 55.99 54.48 57.37
51.50 51.47 50.48 50.20 50.01 49.55 47.01 38.43 39.53 43.16 41.30 42.60 43.10 43.63 44.77 43.96 44.33 46.00 42.06 44.31 46.89 46.65 46.58 44.97 44.48 42.41 44.63 40.61 42.00 43.09 47.64 48.65 45.38 44.98 49.46 51.01 53.84 53.82 54.04 54.59 54.51 56.55 58.75 59.37
51.58 51.43 50.60 50.35 50.41 49.88 47.89 36.95 38.74 42.31 41.36 37.86 41.98 49.12 45.97 49.20 47.56 47.96 47.22 47.28 46.33 46.22 47.34 43.33 41.56 42.28 46.96 43.31 43.28 44.17 46.08 47.13 45.74 45.85 47.98 49.58 53.12 52.69 53.02 54.35 56.15 57.62 58.51 57.45
51.67 51.46 50.68 50.46 50.34 49.50 45.11 40.34 40.06 43.55 41.32 38.35 39.94 44.62 46.82 46.34 48.06 48.25 46.49 45.70 43.91 43.00 42.03 42.76 40.78 43.66 44.63 43.87 45.90 45.12 47.67 45.50 42.10 41.68 48.01 48.48 49.48 53.00 54.23 55.30 55.70 56.41 55.25 54.94
52.03 51.63 50.97 50.69 49.99 48.18 40.05 42.28 43.48 41.63 44.12 39.40 37.65 43.84 44.51 44.30 45.35 44.81 45.39 44.31 44.19 43.36 41.24 39.95 41.84 45.67 43.43 39.89 42.17 48.04 50.09 51.72 49.02 47.64 51.97 52.06 53.60 54.06 56.30 55.79 54.49 55.49 56.95 59.19
51.63 51.16 50.66 50.06 49.44 41.22 37.52 41.61 44.30 45.14 43.16 40.43 39.57 38.70 43.52 45.18 44.08 43.91 43.20 42.84 42.55 41.92 39.27 40.09 42.05 43.67 43.44 39.67 38.05 47.51 51.14 51.01 51.14 52.80 51.88 50.27 52.77 51.09 55.16 56.69 57.27 57.28 57.21 58.14
51.04 50.46 50.05 49.59 49.21 45.90 38.08 40.88 46.51 43.10 42.83 43.77 37.33 38.03 41.56 45.33 41.39 40.76 42.66 41.53 41.89 41.85 40.06 38.91 41.87 43.00 41.45 38.14 42.24 47.48 50.23 51.26 52.00 53.72 54.12 51.50 51.65 52.69 53.57 56.66 57.93 57.15 56.95 57.30
50.60 50.42 49.50 43.56 41.27 37.19 42.45 51.62 47.89 45.84 45.45 40.54 38.50 35.49 37.78 44.39 40.73 42.12 43.50 42.41 39.62 42.02 38.99 37.64 41.58 39.03 37.23 39.62 42.42 46.43 49.10 49.91 49.12 50.57 51.93 52.38 53.04 52.49 54.29 56.43 56.17 54.98 55.75 56.81
49.48 43.31 41.04 38.03 43.11 51.11 51.12 42.01 40.86 41.45 41.64 41.26 37.33 38.84 38.16 42.53 41.18 41.85 43.15 43.18 40.50 38.83 40.09 40.38 36.49 35.75 43.76 46.22 46.04 44.92 49.02 49.94 46.31 47.37 48.00 50.41 51.53 53.80 53.96 54.39 55.40 55.49 56.18 56.51
40.10 38.10 39.49 45.67 52.64 44.68 42.62 40.16 37.92 37.31 36.08 38.56 39.49 38.12 37.63 41.54 42.13 40.44 41.98 39.96 39.46 35.82 38.94 39.38 37.85 40.22 45.15 48.07 48.56 47.65 47.68 51.38 52.79 52.04 52.70 52.00 51.76 54.27 54.49 54.67 55.52 55.43 55.28 54.55
41.47 42.68 44.33 44.64 43.45 42.22 39.61 38.07 38.89 37.63 36.66 38.56 36.72 37.87 38.24 40.62 45.27 41.35 41.01 39.40 40.30 35.92 42.78 39.42 38.43 42.47 45.02 46.71 49.79 50.25 49.24 50.72 51.47 52.24 53.83 54.76 55.50 53.53 52.97 55.32 55.56 55.50 55.79 55.63
45.52 41.89 42.16 40.12 39.56 32.94 36.23 33.95 36.35 35.21 39.77 40.37 38.63 37.45 41.96 40.23 43.26 42.29 41.15 39.13 37.91 42.35 39.54 38.12 40.25 42.44 45.29 47.75 48.69 51.09 52.04 52.11 52.30 53.08 53.99 54.21 53.99 54.25 53.88 53.61 54.43 54.41 53.82 54.16
41.23 40.87 33.74 35.97 34.95 37.16 38.08 38.52 37.93 40.09 41.11 40.06 39.06 38.13 38.33 38.73 39.59 39.04 38.18 40.69 41.70 37.34 34.07 37.37 39.94 42.19 44.71 45.49 48.40 50.69 51.09 52.37 52.86 52.04 52.63 52.85 53.66 54.28 55.00 54.08 53.49 53.15 52.52 52.70
41.16 42.35 34.28 37.14 40.59 40.01 39.31 39.61 39.26 42.17 42.01 41.47 41.39 40.76 39.05 39.29 40.63 40.20 38.56 37.21 37.18 38.37 37.03 39.57 43.54 44.12 44.08 47.60 50.85 51.56 53.00 52.38 51.33 50.63 51.10 52.09 52.59 52.21 52.10 52.78 52.09 51.80 51.29 50.18
42.46 42.16 39.61 40.24 36.79 38.01 37.69 39.78 40.46 42.22 42.47 43.15 42.43 39.15 39.45 39.03 39.57 38.98 37.74 37.61 36.62 37.51 40.99 43.28 43.89 45.81 47.07 51.00 52.88 53.27 53.01 50.30 49.05 48.95 49.70 50.69 51.28 51.16 51.01 51.45 50.83 50.36 49.56 48.61
42.60 40.00 41.75 39.21 39.44 41.55 42.11 41.97 43.05 44.62 44.02 40.54 40.47 38.64 37.58 39.84 37.67 38.33 40.46 38.47 39.78 42.55 43.78 45.00 45.80 45.52 46.82 49.07 50.40 50.24 50.17 48.78 48.87 48.94 50.01 50.36 50.56 51.06 50.52 49.08 48.55 48.88 48.67 48.51

GFSNW_sfc_wetblb_060.txt.gz
Wetbulb
51.43 51.79 51.91 51.80 51.23 50.15 44.50 37.34 38.46 45.86 43.74 37.16 32.73 35.03 38.92 44.43 43.70 44.66 43.75 42.95 42.18 41.10 41.73 39.86 39.70 41.62 45.17 48.80 47.44 41.47 41.79 37.97 36.21 41.04 44.33 46.66 43.19 40.92 39.45 36.54 34.89 35.26 36.28 39.15
51.54 51.92 51.91 51.37 51.02 49.99 43.59 35.48 38.05 48.37 43.32 34.55 33.79 36.13 40.67 42.74 41.61 42.18 40.49 42.30 44.00 42.59 39.84 37.62 41.19 43.94 48.14 48.65 49.80 45.36 41.69 37.08 34.81 37.97 39.92 43.04 43.97 42.24 39.58 37.58 37.30 36.74 36.78 39.59
51.45 51.67 51.76 51.48 51.36 50.66 45.09 38.62 40.95 43.45 40.42 37.56 35.66 36.95 38.98 40.12 45.45 43.47 42.61 43.25 42.75 40.73 38.38 38.97 39.15 42.45 47.10 48.57 49.33 55.92 49.02 36.43 36.56 35.44 38.09 41.42 43.21 45.28 43.78 41.23 38.00 37.44 39.03 42.30
51.35 51.69 51.71 51.62 51.62 50.41 43.80 40.20 38.67 44.78 39.27 39.47 37.68 37.99 40.71 40.47 41.00 43.60 43.54 39.76 42.20 41.03 36.66 37.23 38.06 43.61 45.25 46.90 51.73 47.85 43.49 39.41 39.08 40.22 42.40 44.43 44.82 45.71 45.83 42.40 41.66 41.47 42.50 43.28
51.18 51.58 51.29 51.43 51.38 49.14 42.13 39.13 42.45 43.70 41.79 41.12 41.05 40.06 40.17 41.57 43.28 42.22 41.72 40.32 43.49 42.07 38.91 40.27 40.26 43.23 40.52 40.95 45.05 44.14 44.67 41.13 41.08 38.94 44.63 46.05 44.85 46.37 47.03 46.51 44.97 45.94 46.49 46.35
51.10 51.49 51.07 51.23 50.63 45.14 36.34 42.90 46.05 41.73 41.15 40.87 38.98 40.08 41.99 44.45 44.82 45.82 45.70 46.30 44.68 43.08 45.72 46.77 45.15 45.85 46.34 42.97 43.80 42.01 42.52 40.70 40.62 38.42 43.58 43.61 39.87 42.84 45.80 48.07 48.09 48.60 44.97 48.44
51.16 51.33 51.12 51.04 50.72 46.86 40.32 37.33 43.27 39.98 39.40 40.72 42.17 44.61 45.29 44.84 46.57 43.85 47.68 47.40 46.72 48.96 51.03 49.71 46.22 44.75 43.90 45.36 43.30 42.63 40.69 40.19 41.03 39.29 39.37 34.15 42.53 50.37 50.72 50.81 52.66 53.08 52.56 52.40
50.99 51.28 51.24 50.78 50.88 50.10 41.26 39.19 40.48 39.50 37.25 42.93 43.23 44.69 43.80 44.75 45.83 46.34 48.38 49.67 48.88 47.88 47.99 43.70 40.89 41.03 39.97 42.55 44.25 41.55 40.50 39.44 37.23 37.61 36.07 41.63 47.27 52.73 51.98 49.93 46.96 52.81 51.79 53.43
51.64 51.43 51.54 50.35 50.83 49.95 41.04 39.01 39.95 40.42 37.86 40.94 45.10 43.28 43.21 41.34 40.51 44.57 46.73 49.07 49.83 48.01 44.02 42.28 36.66 36.28 39.12 39.42 40.88 41.83 42.09 39.20 39.09 37.90 34.71 34.99 46.65 53.07 55.38 54.83 43.31 52.62 53.57 53.95
51.85 51.54 51.49 50.31 50.40 49.78 43.55 40.19 40.28 40.07 37.31 40.97 42.44 40.47 40.05 42.19 41.14 40.51 41.42 43.35 47.23 45.51 40.32 38.33 37.16 36.94 41.33 37.51 35.40 36.89 37.22 37.06 35.76 35.23 35.42 40.10 50.95 52.69 54.09 42.82 42.68 51.96 54.54 54.94
52.02 51.75 51.56 50.38 50.14 50.04 43.59 38.96 41.67 40.71 37.01 39.51 43.05 45.70 40.19 40.24 40.20 38.51 41.16 44.20 45.12 44.04 41.94 38.76 37.58 38.14 41.84 40.85 42.34 40.70 40.85 40.08 36.71 35.92 34.01 34.16 52.35 51.67 47.53 49.20 51.68 53.36 54.68 55.85
51.79 51.83 51.47 50.50 49.89 49.70 44.66 35.78 41.81 43.44 40.61 41.18 42.15 45.86 47.63 45.03 44.10 41.56 41.16 43.32 43.26 46.27 43.76 42.67 42.28 42.41 42.89 41.14 39.36 44.98 42.13 44.09 42.54 43.93 43.12 49.42 52.54 50.29 52.63 52.43 52.83 54.53 56.58 57.46
52.00 51.71 51.66 50.57 49.98 49.45 46.10 37.59 38.07 41.47 40.35 41.84 41.33 41.57 42.65 44.03 45.09 45.23 41.87 42.63 45.17 45.74 44.80 43.99 43.07 41.86 43.24 39.98 41.54 42.83 46.67 48.32 44.66 44.97 48.68 50.54 52.90 53.37 53.34 53.98 53.39 54.51 56.09 57.10
51.96 51.66 51.62 50.80 50.37 50.03 47.31 37.01 36.94 40.92 40.59 37.72 40.40 48.20 45.02 47.17 43.86 45.76 44.96 45.94 44.53 45.24 45.69 42.60 41.71 42.01 46.02 43.55 44.07 43.69 47.10 47.66 46.50 45.70 46.58 48.68 52.72 52.62 53.13 53.78 55.94 55.89 57.19 57.35
52.17 51.58 51.62 51.00 50.55 49.77 44.71 39.45 39.60 41.57 41.03 37.08 39.16 43.66 45.55 45.04 46.31 46.96 45.50 44.67 42.40 41.60 41.23 41.90 40.74 43.53 45.41 43.08 45.52 44.24 47.65 46.08 42.09 40.82 46.83 49.02 49.45 52.72 54.00 55.10 54.55 54.68 54.72 54.84
52.22 51.97 51.70 51.12 50.01 46.38 38.66 40.08 40.81 40.63 42.41 38.77 35.01 42.45 44.48 44.15 45.60 45.02 43.53 43.05 42.92 41.82 40.24 38.64 40.29 44.21 43.40 39.97 41.62 47.50 49.34 50.28 47.92 47.08 51.59 52.29 53.38 54.62 55.38 55.47 54.55 56.27 57.05 56.92
51.82 51.43 50.87 50.20 49.59 42.73 35.92 40.47 42.33 43.12 41.91 37.86 36.72 37.62 42.19 43.53 41.95 42.22 41.49 41.18 40.92 40.85 38.11 38.58 40.86 42.48 42.25 39.54 37.73 46.20 49.68 50.64 51.12 51.65 52.33 50.21 52.85 51.22 54.85 55.06 56.05 57.96 58.10 57.79
51.14 50.67 50.17 49.82 49.36 46.09 40.15 41.17 47.06 42.76 38.29 42.32 37.07 36.89 40.06 42.71 39.78 39.67 39.77 39.75 39.90 40.04 37.95 37.85 40.44 41.96 40.19 38.10 41.32 43.37 49.38 50.73 51.56 53.47 53.67 51.73 52.36 53.05 52.87 54.09 55.81 55.95 55.91 57.53
50.60 50.33 49.70 43.23 41.14 36.38 39.86 50.38 48.45 42.80 43.63 39.21 36.91 35.05 36.50 42.30 38.79 40.62 41.45 39.92 37.70 39.64 37.47 36.82 39.80 37.73 36.97 38.78 41.70 42.95 48.46 49.58 49.15 50.39 51.09 52.06 51.78 52.33 53.38 54.25 55.67 54.60 54.72 56.70
49.78 43.07 39.59 35.66 39.92 48.31 49.48 42.07 38.84 38.53 39.58 39.97 37.17 37.25 37.91 41.18 39.80 40.31 40.88 40.41 38.32 36.89 38.96 39.70 35.59 35.81 42.19 44.99 46.54 46.61 46.34 47.91 49.59 45.98 48.90 50.92 51.14 52.50 53.63 53.89 54.25 54.33 55.25 56.46
38.37 36.36 38.15 44.26 51.01 44.20 41.45 37.59 36.04 34.48 34.87 38.09 39.15 38.14 37.72 40.47 40.53 39.02 40.19 38.03 37.49 34.68 37.83 38.58 38.00 39.01 43.79 46.15 48.28 48.56 47.45 49.65 50.47 52.31 52.73 53.11 53.09 53.27 53.16 54.09 54.79 54.86 54.84 54.48
40.01 40.88 44.30 43.90 42.70 41.30 38.41 37.07 37.72 35.77 34.71 38.35 37.28 38.54 38.21 39.01 42.78 40.43 39.90 38.02 38.24 33.77 41.07 38.52 38.02 42.26 43.54 46.79 48.16 50.15 49.76 50.70 51.80 53.64 54.53 54.54 53.79 53.10 54.16 55.49 55.37 55.33 55.41 55.57
45.06 41.91 41.76 39.96 38.84 31.87 35.28 32.58 34.56 34.94 39.32 39.74 38.10 37.48 40.43 39.20 42.89 40.88 40.11 37.56 36.25 40.94 38.14 37.18 39.10 41.79 44.42 46.64 47.19 50.58 51.72 52.60 52.50 52.95 53.87 53.73 53.80 54.48 53.98 53.89 54.70 54.68 53.90 53.90
40.91 40.38 34.38 35.94 34.01 35.23 36.44 37.86 39.08 41.47 40.38 38.90 37.58 37.49 37.85 37.45 38.96 38.74 37.55 38.38 40.10 35.86 33.15 36.04 39.86 41.70 44.12 45.63 48.79 50.66 51.89 52.44 52.13 52.59 53.15 53.22 53.80 53.78 53.96 53.18 52.38 51.83 51.04 51.31
40.29 41.36 34.39 36.22 39.89 39.81 40.34 40.41 38.17 39.38 40.30 40.71 39.78 39.17 39.43 38.48 39.46 38.15 37.14 36.37 36.12 37.24 36.66 39.10 42.54 43.62 44.24 47.50 49.95 50.27 51.05 50.97 51.00 51.35 52.36 52.16 52.54 52.14 51.52 51.88 51.68 50.94 49.91 49.29
41.66 41.09 39.25 39.38 37.33 37.16 37.93 38.44 38.22 40.38 41.36 41.85 41.43 38.81 38.90 37.49 38.39 37.41 35.64 35.70 35.51 37.39 39.94 42.34 43.94 45.49 45.70 47.79 52.37 52.64 52.81 50.93 50.65 50.32 50.62 51.42 51.61 51.32 50.75 50.76 49.99 49.61 49.16 48.61
41.52 40.03 42.09 40.14 39.35 39.06 41.24 40.44 40.82 42.41 42.85 40.26 39.73 37.52 36.11 38.49 36.90 37.42 39.52 37.49 39.00 41.25 43.06 44.02 44.33 45.11 46.34 48.23 49.69 51.17 50.69 49.63 49.30 49.23 50.09 50.52 51.14 50.88 49.74 48.28 48.74 49.15 48.86 48.76

GFSNW_sfc_wetblb_063.txt.gz
Wetbulb
52.02 52.19 52.32 51.75 51.23 50.11 46.51 43.68 42.10 50.74 50.56 43.78 42.30 42.56 44.51 44.88 46.97 48.08 47.14 47.40 46.15 44.62 45.24 46.15 46.21 46.92 49.59 51.60 51.96 48.37 49.39 48.96 46.59 47.18 49.74 50.54 50.87 50.60 51.35 46.37 45.93 47.17 47.23 46.73
52.08 52.33 52.30 51.61 50.99 50.23 44.82 41.30 42.92 52.01 48.81 41.22 42.25 43.72 44.05 45.71 45.60 46.27 45.59 45.85 47.51 47.90 46.72 45.41 46.46 47.60 50.55 51.55 53.71 52.03 49.95 47.77 45.13 46.49 48.01 50.03 50.09 49.44 50.04 50.11 50.54 48.35 46.34 48.06
51.85 51.87 52.21 51.56 51.29 50.47 45.84 43.04 45.86 48.25 47.59 44.48 43.29 43.47 44.43 44.31 47.24 46.03 46.29 45.64 47.82 46.94 46.66 47.75 46.55 47.44 49.93 51.32 52.46 55.34 54.98 47.66 48.04 44.30 46.94 49.29 49.67 49.16 49.35 51.32 49.10 49.09 49.15 51.49
51.66 51.56 52.17 51.80 51.39 49.84 46.84 44.15 44.71 46.97 44.03 44.89 45.11 45.40 45.08 44.16 43.98 47.27 47.22 45.86 45.47 46.45 46.00 45.93 46.10 49.48 50.30 50.37 54.69 54.20 52.92 49.70 48.83 48.88 48.18 49.12 49.67 50.59 49.93 49.99 51.35 49.97 51.85 51.64
51.77 51.45 52.10 51.74 51.05 48.24 46.87 43.73 45.89 47.95 45.74 46.88 45.80 44.22 45.46 44.39 46.33 46.72 46.36 45.23 46.83 46.71 46.92 48.34 46.85 50.04 50.32 49.65 52.16 52.40 52.71 51.67 51.02 49.51 49.84 50.73 48.80 49.97 50.42 50.41 49.92 51.28 52.70 52.60
51.66 51.28 51.64 51.49 50.28 45.50 41.30 44.58 48.52 46.40 45.26 46.05 44.82 45.71 45.69 45.92 47.30 49.34 48.96 47.87 47.67 45.38 48.02 49.94 52.50 52.97 53.05 52.24 51.52 51.28 52.06 51.68 50.94 46.39 50.44 49.48 47.10 48.76 49.73 52.25 53.83 53.65 51.93 54.91
51.45 51.20 51.51 51.19 50.40 47.96 45.65 42.82 45.05 44.48 44.39 45.38 46.46 46.70 46.35 45.78 47.92 47.05 49.87 51.32 51.07 52.25 54.78 53.53 52.53 51.56 51.42 51.59 51.18 50.96 50.23 51.55 51.40 48.32 49.13 42.17 48.97 57.87 56.54 55.28 54.86 56.14 56.48 57.39
51.39 50.76 51.20 50.90 50.80 48.29 47.71 45.75 42.54 44.29 42.16 44.79 46.33 46.13 46.84 47.53 48.87 48.04 50.40 52.05 52.90 53.74 52.82 49.65 47.82 47.36 48.03 48.50 48.65 49.62 49.91 50.27 47.54 46.01 46.20 47.41 52.09 55.15 55.04 54.67 52.70 55.96 56.33 57.84
51.81 51.45 51.52 50.78 50.92 49.82 47.27 44.83 44.28 45.03 41.89 43.45 46.11 45.40 45.19 45.64 46.27 49.58 50.63 52.39 53.78 52.72 50.34 48.33 43.53 42.18 44.57 44.80 46.21 49.23 49.61 50.81 48.03 46.63 43.41 41.36 51.22 54.80 56.36 57.21 51.52 56.27 57.03 57.80
52.12 51.98 51.73 51.05 50.59 49.80 48.45 45.80 44.86 45.34 42.05 45.54 46.82 45.05 43.58 46.38 46.80 46.01 46.71 47.64 51.71 52.59 47.99 45.02 43.69 43.31 46.10 43.49 43.56 46.49 47.29 47.74 45.27 45.02 43.71 46.80 54.07 55.07 56.86 49.64 50.48 56.91 57.97 58.55
52.08 52.10 51.83 51.20 50.06 50.18 47.54 44.36 45.57 45.71 43.65 45.43 46.53 47.55 45.21 46.20 46.56 44.79 48.37 49.86 51.74 52.25 48.98 46.72 46.23 45.71 48.56 48.01 48.72 48.78 48.27 47.60 46.32 44.78 43.46 41.48 55.34 54.19 52.12 54.55 56.77 56.60 58.18 58.59
52.48 52.35 51.96 51.31 49.95 49.57 45.75 41.53 46.07 46.85 44.14 46.78 47.65 49.90 50.99 50.06 49.00 46.07 48.46 49.62 49.49 51.58 50.81 49.71 50.32 49.61 50.23 48.61 46.38 51.16 48.68 51.41 51.01 51.14 49.66 54.64 56.88 54.74 55.83 56.02 55.01 56.12 56.77 58.31
52.25 52.12 51.98 51.58 50.33 49.66 47.59 43.74 44.21 46.16 45.00 46.85 46.96 47.18 48.89 50.57 50.42 50.94 47.24 49.83 51.67 52.09 51.95 52.02 51.81 48.90 51.50 47.90 47.99 49.85 52.57 53.35 52.23 50.31 53.24 54.69 55.92 56.91 56.87 56.76 56.08 57.73 58.66 58.26
52.15 52.19 51.98 51.56 50.85 50.17 48.25 43.32 43.90 43.27 46.02 42.28 46.24 51.94 51.19 52.72 49.65 50.68 51.25 52.50 51.69 52.66 52.55 51.07 49.82 49.59 52.11 50.38 50.13 50.27 52.24 52.61 51.92 49.64 52.40 53.95 55.68 56.89 57.09 56.62 57.82 57.77 58.71 58.98
52.22 52.01 52.10 51.82 51.16 50.22 48.62 46.05 45.57 44.76 45.68 42.60 44.71 49.14 51.05 51.46 50.39 52.12 52.33 52.67 52.65 52.06 50.45 50.51 49.34 50.82 51.40 51.98 52.05 50.56 53.75 51.19 48.96 47.13 52.43 54.75 54.37 56.30 57.55 56.54 56.46 57.93 58.63 58.85
52.46 52.26 52.03 51.48 50.44 47.25 41.95 43.30 45.31 44.34 46.54 44.57 41.98 48.63 49.89 51.12 51.76 51.54 51.31 52.16 51.54 52.12 51.16 49.91 50.36 50.62 50.99 49.23 48.61 53.31 54.69 55.08 53.96 53.46 56.10 56.61 58.00 58.39 58.05 57.32 57.84 58.28 59.47 59.64
52.12 51.70 51.20 50.62 49.62 47.16 40.49 42.79 46.24 45.42 47.58 44.52 41.34 45.54 49.52 49.39 49.90 49.74 50.02 49.78 49.69 50.11 48.82 49.32 51.44 51.44 51.34 49.78 47.20 53.92 55.29 55.98 56.49 56.72 56.84 55.03 55.92 55.56 57.04 57.36 57.72 57.51 60.26 60.22
51.53 50.90 50.35 49.85 49.54 47.73 43.55 45.60 47.70 46.62 43.06 46.66 43.19 44.24 46.97 49.72 48.70 48.25 48.64 49.34 49.75 48.70 48.14 48.18 50.34 50.25 50.44 46.92 48.45 51.01 54.50 55.57 55.86 56.86 58.46 58.06 58.39 57.89 57.62 58.32 58.50 58.62 58.53 59.26
50.92 50.41 49.81 47.06 44.07 39.92 41.93 49.87 50.16 46.15 45.81 44.18 43.92 42.38 43.92 49.93 48.12 49.54 50.14 49.39 46.94 48.49 48.15 47.66 48.45 48.13 45.77 47.62 50.24 51.65 52.41 53.57 55.08 55.78 54.60 55.69 55.98 56.58 57.10 58.45 58.28 57.50 58.45 58.51
49.95 45.09 41.52 38.29 42.07 47.64 49.54 46.32 44.23 43.37 45.53 45.57 43.10 46.50 45.68 48.77 48.34 48.58 49.62 49.55 47.70 45.38 47.51 48.74 46.72 46.38 49.76 51.65 52.82 53.08 52.50 52.98 53.26 53.24 54.44 56.26 56.48 57.15 57.22 57.30 57.86 57.92 58.43 58.08
43.47 39.19 39.30 47.12 50.99 47.15 43.76 40.51 39.54 40.24 39.64 42.80 44.99 45.56 45.79 48.03 47.51 47.51 48.68 47.36 46.53 43.79 45.90 46.47 45.31 45.81 49.82 52.34 53.50 54.58 54.28 54.19 54.89 55.46 58.11 58.25 57.86 57.04 57.41 57.57 57.75 58.24 58.41 57.87
43.84 43.21 46.46 47.64 46.22 43.23 39.62 40.63 41.96 39.45 37.62 42.00 42.71 45.34 46.56 47.17 50.09 49.19 47.95 46.16 46.08 40.91 49.10 46.04 43.74 49.05 50.01 51.67 52.70 54.78 56.09 56.41 56.22 57.85 57.65 57.41 57.18 58.26 58.18 57.96 57.07 57.37 56.93 56.73
47.47 44.22 42.94 42.39 41.14 35.84 36.66 35.93 38.99 39.71 43.41 43.16 42.34 42.57 45.78 47.64 50.41 47.99 48.23 43.96 43.42 48.72 45.17 43.69 47.30 49.59 50.71 51.91 53.67 54.73 56.18 56.70 56.70 56.50 57.12 57.61 57.96 58.52 58.45 57.92 58.28 57.67 55.46 55.83
42.83 41.91 36.08 37.62 36.52 38.19 40.97 41.96 42.72 45.65 44.40 43.45 44.01 44.44 45.33 46.15 46.93 47.50 43.40 45.64 47.20 41.96 39.82 41.48 48.39 50.34 51.26 52.86 54.36 54.50 53.80 54.77 55.50 55.83 56.55 56.92 57.05 57.02 57.09 56.77 56.72 56.23 55.51 55.04
42.18 42.35 35.35 37.63 42.02 43.67 44.29 45.31 44.31 44.68 45.67 44.37 44.81 45.36 46.81 45.93 45.28 45.98 44.80 42.71 40.56 42.89 43.20 47.54 50.85 50.77 52.20 53.99 54.61 54.43 53.55 52.81 52.41 53.47 54.84 55.30 56.29 56.14 55.33 55.79 55.65 54.82 53.96 53.58
42.72 42.53 41.05 43.64 41.00 42.24 42.82 43.62 43.67 45.90 45.69 47.08 47.41 44.71 44.66 43.60 45.14 42.69 40.92 40.30 39.43 44.99 48.71 50.73 52.32 52.01 53.00 54.31 54.68 53.05 53.04 53.14 53.54 54.18 54.72 55.77 56.11 55.74 55.38 54.76 54.25 53.74 53.34 53.01
42.34 42.06 45.22 43.97 43.69 42.89 44.63 44.50 45.41 47.29 47.43 45.70 45.83 42.96 41.48 44.85 43.60 42.56 46.28 44.82 47.67 49.01 50.28 51.60 53.72 54.07 54.28 54.64 54.76 53.61 52.39 52.77 54.37 55.29 56.09 56.20 56.25 56.12 54.37 52.98 53.25 53.38 53.33 53.67

GFSNW_sfc_wetblb_069.txt.gz
Wetbulb
53.17 52.82 52.75 52.80 51.41 50.23 50.68 51.08 47.06 58.17 58.05 49.32 49.13 45.94 47.96 48.49 50.08 52.34 51.18 51.10 50.10 49.68 50.30 49.56 50.20 50.36 52.59 55.92 55.24 51.81 54.40 52.67 49.65 51.28 54.63 55.30 54.63 53.34 52.85 48.76 49.24 50.90 50.55 49.62
53.30 52.55 52.56 52.55 51.20 50.76 49.57 48.72 48.92 58.23 55.41 46.55 47.94 49.81 47.74 49.05 49.10 50.02 50.08 49.63 50.88 51.25 49.56 48.36 50.29 52.48 55.11 56.05 55.99 54.48 54.90 51.30 47.71 49.45 52.19 54.40 52.24 53.69 54.57 54.38 53.96 51.31 48.31 50.04
53.48 52.45 52.02 52.71 51.85 51.27 50.10 49.19 47.30 53.73 53.67 52.82 49.87 49.20 47.98 46.95 49.61 48.91 50.23 50.30 51.41 50.34 49.28 51.78 50.02 51.69 53.35 54.72 56.79 59.70 60.71 53.59 51.05 46.85 50.29 52.61 51.24 51.61 53.20 53.17 50.86 50.93 50.84 52.13
53.44 52.47 51.88 52.44 51.86 51.27 50.20 51.47 49.44 54.71 50.82 49.28 50.31 49.99 49.65 48.62 48.60 51.24 51.98 50.18 49.45 49.39 48.24 49.27 49.76 51.23 52.87 53.98 55.08 56.57 56.66 52.47 53.20 52.94 51.96 53.41 52.33 51.48 51.64 51.61 52.63 50.45 53.03 55.36
53.41 52.64 51.80 52.12 51.49 50.43 51.64 50.14 51.86 54.91 53.03 54.52 52.22 49.07 49.23 49.77 51.65 52.16 51.05 50.35 50.23 51.29 49.36 50.19 49.07 51.21 52.69 52.82 55.11 55.03 57.46 53.59 55.72 52.02 52.60 52.43 51.02 52.12 52.62 52.34 52.72 52.82 52.63 53.27
53.88 52.57 51.89 51.71 50.92 49.40 50.65 51.86 52.29 52.52 50.50 53.15 51.94 50.80 49.28 49.86 51.90 53.56 53.85 52.99 51.95 51.08 52.21 53.68 53.49 54.54 55.90 56.33 55.38 53.98 54.66 54.38 53.62 49.01 51.73 51.58 48.85 51.07 51.92 52.98 53.81 53.76 54.54 60.73
53.72 52.80 52.18 51.58 50.44 49.17 52.13 51.57 49.03 49.15 47.98 51.10 49.96 51.36 51.56 51.54 52.62 51.54 54.20 54.63 54.71 57.00 60.21 57.82 56.31 54.44 55.42 55.89 55.48 56.48 54.66 54.99 53.82 49.44 50.23 42.61 55.26 59.59 56.42 54.80 58.95 60.17 62.01 61.91
53.88 52.92 52.10 52.16 50.57 50.26 51.42 53.09 49.60 49.83 47.91 51.78 51.61 51.05 49.83 53.03 54.70 53.88 54.07 55.94 58.52 60.57 57.33 53.07 50.44 50.30 52.15 52.93 54.15 55.15 55.34 54.25 50.40 47.82 47.88 51.21 55.45 58.16 57.16 55.39 58.02 61.71 61.63 62.75
54.03 53.25 51.95 52.32 50.97 50.40 51.14 52.82 53.52 49.83 48.71 49.65 51.45 50.16 52.10 50.49 50.85 53.36 54.34 58.38 60.31 58.78 55.50 51.79 47.51 45.79 48.80 48.37 50.91 55.87 55.41 56.48 51.54 49.82 45.85 44.47 55.04 59.64 62.36 61.49 54.59 61.78 62.53 62.61
54.27 53.50 52.33 52.43 51.60 50.87 50.56 52.29 54.37 50.67 48.16 51.89 51.72 49.70 50.02 52.75 52.43 52.39 54.49 55.54 55.33 57.08 53.15 48.75 47.99 46.02 51.50 46.70 47.84 50.27 50.95 51.47 48.06 47.82 46.30 49.33 58.43 59.67 62.04 51.62 54.74 61.18 61.75 61.80
54.49 53.60 53.01 52.64 52.05 50.98 50.85 52.09 55.42 49.77 48.34 51.40 52.74 52.51 50.95 51.37 53.07 50.66 52.62 53.65 54.82 52.67 50.01 50.34 49.14 48.21 48.68 50.37 51.66 50.64 49.93 49.51 48.38 49.05 46.90 44.50 60.13 58.56 56.01 57.83 60.92 60.88 61.41 61.90
54.52 54.03 53.36 52.78 52.13 51.05 49.72 49.69 54.88 54.50 49.67 50.59 54.07 53.81 54.39 53.97 53.48 51.29 54.44 56.02 54.52 54.77 52.38 52.33 52.94 49.96 52.49 50.16 46.82 56.22 47.86 52.20 52.52 54.18 53.20 59.52 60.65 59.16 60.46 60.54 59.80 60.09 60.64 61.50
54.31 54.09 53.17 53.02 52.44 51.29 49.78 51.16 51.70 49.42 47.38 50.40 52.22 51.67 55.58 56.84 56.19 56.02 50.46 57.70 57.24 56.54 58.10 54.74 53.13 50.79 51.83 48.26 49.76 51.47 56.32 59.13 52.02 52.79 56.86 58.26 59.66 60.51 61.15 60.88 60.44 61.00 61.61 62.03
54.07 53.62 53.49 53.22 52.52 51.53 50.18 51.48 52.75 49.37 47.44 46.27 50.73 56.48 54.80 57.44 57.78 56.59 56.38 55.20 57.85 58.35 56.14 53.45 52.64 50.51 54.74 51.21 53.10 53.70 55.39 54.03 55.10 55.02 56.02 57.46 58.82 59.88 60.23 60.35 61.14 61.25 61.99 61.96
53.71 53.52 53.39 53.06 52.43 51.56 51.03 53.15 53.22 52.44 46.40 45.73 49.35 53.87 54.64 56.39 57.45 56.13 56.52 56.15 56.73 54.24 52.46 52.00 51.26 54.09 54.38 54.68 53.03 52.02 55.72 55.59 52.66 50.26 58.03 57.22 58.91 60.25 60.60 59.88 60.34 61.46 61.30 61.82
53.51 53.32 53.07 52.78 52.14 50.92 49.61 48.42 54.09 53.45 49.93 47.01 46.90 56.04 55.53 55.82 56.32 56.03 55.94 56.44 55.71 53.71 52.00 51.97 52.94 56.15 54.96 49.89 49.62 56.15 57.99 55.75 58.06 56.78 58.87 59.17 59.37 60.00 59.89 59.13 60.51 61.81 61.88 63.04
52.87 52.40 52.09 51.57 51.28 51.61 49.69 48.38 50.48 47.83 51.50 47.47 46.65 49.83 54.89 55.32 55.49 55.66 55.25 56.44 53.76 53.63 52.01 51.29 51.52 53.59 53.48 51.19 48.99 55.56 57.53 58.53 58.52 59.25 57.92 55.59 58.04 57.50 59.56 60.16 60.65 60.92 62.85 63.52
52.44 51.81 51.13 50.85 50.69 50.10 48.88 52.84 50.24 51.44 50.70 49.81 46.24 49.35 52.46 55.21 51.41 51.03 55.38 53.05 53.64 53.02 51.54 54.23 51.90 53.97 53.85 49.23 55.54 57.38 56.90 57.78 56.94 57.07 58.38 57.13 58.48 59.32 59.46 60.73 61.27 60.69 60.92 62.01
51.72 51.08 50.80 50.03 47.65 49.07 51.76 51.32 50.67 51.35 50.26 46.19 47.02 47.31 47.54 55.17 52.79 54.56 54.42 53.57 48.62 54.32 49.74 50.33 52.70 50.74 48.93 52.86 54.57 56.21 57.17 56.02 56.00 57.74 57.10 57.32 57.38 58.29 59.22 59.74 59.57 60.02 60.39 61.61
50.77 48.47 44.77 47.52 52.05 51.67 52.70 51.30 49.14 47.77 48.17 47.78 45.11 51.99 50.43 52.82 51.86 51.44 51.47 51.94 50.70 47.94 49.78 54.95 49.98 48.10 56.45 56.30 57.04 58.65 57.57 57.91 57.64 55.72 54.84 56.30 56.65 57.72 58.39 59.81 60.50 60.61 59.71 59.94
45.84 42.39 42.32 53.49 51.55 50.78 49.94 46.21 45.69 47.60 45.03 46.25 47.15 49.17 49.85 54.48 50.34 49.75 53.62 51.82 51.78 46.82 50.53 48.98 49.51 48.96 54.39 57.54 56.51 59.38 58.26 58.32 58.32 58.90 59.20 59.13 58.91 58.28 58.38 59.89 59.28 58.29 58.63 58.90
46.23 46.41 51.49 51.97 49.32 47.10 43.85 43.40 46.44 45.36 43.55 45.90 45.18 47.58 52.28 54.49 57.48 52.50 52.71 49.56 51.76 45.59 55.36 50.40 46.47 54.47 57.82 57.56 57.78 58.94 58.81 59.90 59.08 59.87 59.22 58.87 58.52 59.00 58.73 59.11 59.19 58.29 58.17 58.84
48.26 47.18 45.75 46.42 46.37 39.59 39.26 38.59 43.06 43.66 47.61 47.99 46.19 47.40 52.00 55.93 54.92 52.06 51.43 46.63 47.33 54.91 49.13 46.89 52.50 56.78 58.01 58.54 59.05 58.95 60.73 60.13 59.73 59.18 59.15 58.73 58.04 58.96 57.89 58.19 59.62 60.07 60.19 59.98
45.54 43.52 39.92 42.08 41.51 44.11 45.08 45.65 46.72 50.06 51.18 49.25 46.95 48.15 50.66 53.66 51.02 51.80 46.71 49.60 52.64 45.58 43.91 45.61 53.27 56.33 57.64 58.71 60.16 59.51 58.70 58.72 58.57 58.63 58.67 57.76 57.43 57.78 58.38 58.46 59.72 59.05 58.72 59.31
43.51 45.90 39.29 43.21 47.88 48.97 50.67 50.05 49.48 52.53 52.09 50.55 47.12 48.43 51.92 50.86 49.28 50.04 48.58 45.66 43.03 45.77 46.66 51.20 56.54 58.19 58.69 58.56 59.45 59.19 58.56 58.71 59.04 58.82 58.76 58.40 58.99 59.08 59.34 59.38 59.78 59.89 59.86 58.90
47.48 46.79 44.60 47.33 47.32 47.16 47.69 49.03 49.60 50.95 50.88 52.02 49.62 47.96 47.22 46.77 47.84 45.61 44.18 42.88 42.53 48.26 52.02 55.18 58.10 58.48 58.48 58.65 59.22 59.09 58.32 57.61 58.34 58.73 57.56 58.62 58.44 58.42 59.41 59.50 59.78 59.57 58.63 57.83
44.70 45.89 49.85 48.21 47.60 47.76 47.79 49.49 47.15 51.50 50.16 47.04 47.27 44.43 44.63 48.70 44.75 44.47 47.80 46.87 49.92 52.97 54.23 56.71 59.10 58.65 58.81 58.62 58.06 56.61 57.10 57.99 57.94 57.87 58.35 58.96 59.84 59.40 59.15 57.56 57.77 58.09 57.81 56.98

GFSNW_sfc_wetblb_072.txt.gz
Wetbulb
55.21 54.27 53.44 52.72 51.87 50.04 50.84 51.44 46.80 58.67 58.99 49.87 50.93 47.49 48.89 48.59 50.08 52.20 51.18 51.23 50.19 49.25 49.27 48.97 49.60 49.40 52.02 55.30 55.00 50.93 53.06 50.88 48.93 49.67 54.33 55.93 53.94 52.30 51.87 47.81 48.49 50.53 50.36 49.25
55.06 53.83 53.09 52.59 51.74 50.88 48.42 48.74 50.58 55.08 55.80 44.66 47.70 51.02 50.27 49.81 49.19 49.65 49.70 49.46 51.03 51.63 49.14 47.43 49.93 50.53 53.52 55.54 54.46 54.71 56.49 50.94 46.59 48.54 51.70 53.92 51.52 52.37 52.78 54.41 54.46 50.09 48.06 49.44
55.02 53.79 52.69 52.88 52.47 51.58 49.22 48.57 46.99 51.69 54.69 51.70 49.18 48.69 49.48 49.14 51.41 49.55 50.10 49.81 51.14 50.02 49.07 50.97 48.90 49.49 52.10 54.93 54.49 60.38 59.81 53.52 52.86 45.63 49.76 52.66 51.44 51.34 52.46 52.49 50.65 50.52 49.40 54.58
55.02 53.74 53.06 52.62 52.78 51.85 49.64 51.26 49.20 51.95 47.90 51.45 52.34 51.86 49.82 48.37 48.68 52.40 50.49 49.80 49.18 48.35 46.91 48.40 48.31 50.16 51.37 53.16 58.68 55.27 56.09 53.43 53.01 51.72 51.36 51.16 51.34 51.44 51.64 50.56 51.69 49.33 52.21 55.53
54.85 53.84 52.97 52.43 52.53 50.75 49.43 49.20 48.70 52.45 50.64 52.88 52.20 50.28 49.80 48.42 49.50 51.64 50.98 50.56 50.29 50.89 49.02 49.01 48.16 50.30 51.21 51.24 54.64 53.30 56.14 53.27 54.05 51.13 52.78 52.86 50.24 52.10 52.88 52.30 51.49 51.33 52.50 55.58
55.05 54.04 53.01 52.53 52.09 49.52 52.18 53.26 52.44 48.64 47.48 50.56 51.29 51.20 51.06 49.62 52.01 52.52 53.82 53.34 51.93 50.46 50.88 54.86 54.58 53.39 53.88 53.90 55.22 54.46 54.26 54.67 53.31 49.23 50.26 50.60 47.74 51.68 53.99 52.55 53.87 55.32 53.15 58.99
55.07 54.14 53.11 52.65 52.22 50.22 50.79 51.59 51.43 45.99 44.79 48.85 50.29 51.87 51.95 51.92 52.10 50.86 52.38 54.41 52.66 56.16 60.19 58.64 56.41 54.39 53.19 53.36 54.92 56.76 50.06 50.58 54.08 49.29 52.46 43.92 51.83 57.45 58.72 57.19 59.86 60.75 58.65 56.45
55.25 54.20 53.27 52.53 52.29 51.63 50.14 51.78 50.52 47.32 44.58 49.43 50.89 51.25 51.20 52.58 53.47 53.14 53.15 54.74 57.62 59.39 57.14 52.53 50.64 49.72 50.83 51.57 53.26 55.25 55.78 54.20 50.12 47.60 46.79 49.99 52.27 53.49 53.71 57.28 55.51 60.72 53.54 58.00
55.39 54.28 53.53 52.49 52.45 51.69 50.63 52.07 54.34 49.62 45.15 46.45 51.06 50.15 52.03 50.16 49.65 51.52 53.89 57.60 59.83 58.08 54.23 52.15 47.01 44.35 47.33 46.87 49.83 54.46 54.70 58.31 51.03 49.49 45.07 43.25 50.63 51.87 53.53 57.17 53.56 60.40 62.08 61.43
55.39 54.55 53.78 52.62 52.62 51.82 50.30 51.00 55.01 49.77 45.25 48.82 50.50 49.16 49.17 52.27 50.94 49.72 53.91 54.97 55.40 57.02 52.10 48.64 46.77 46.66 51.91 46.89 47.44 50.23 50.29 52.26 48.13 47.79 45.28 48.49 57.63 57.46 59.87 48.14 53.21 60.63 61.25 61.06
55.23 54.77 54.00 52.82 52.80 52.03 50.98 50.87 55.39 50.50 46.14 47.91 50.25 51.93 50.78 51.36 51.73 49.01 52.43 52.49 55.11 53.81 50.64 45.43 46.62 46.97 50.82 49.94 48.44 50.25 49.30 47.55 48.06 49.90 46.92 44.47 59.50 59.48 55.63 58.98 61.00 60.28 60.96 60.83
55.03 54.83 53.91 53.49 52.96 52.09 50.62 49.02 54.91 53.87 48.96 48.67 52.43 51.85 52.68 52.13 52.70 51.02 52.13 52.64 50.85 55.26 51.55 52.91 49.33 47.24 51.36 49.83 43.16 52.81 47.90 47.54 50.62 53.93 53.42 60.16 59.57 58.63 60.37 61.28 59.83 59.82 60.27 61.31
54.81 54.83 54.02 53.85 53.58 52.24 50.37 50.45 52.62 52.11 47.84 48.29 49.94 50.02 54.65 55.33 54.03 54.88 49.80 54.94 54.55 56.78 58.38 53.61 53.78 48.91 50.07 47.30 49.03 51.24 54.65 54.81 53.57 53.48 57.64 58.28 58.65 59.67 60.19 60.40 59.69 60.73 61.20 61.31
54.63 54.64 54.36 53.89 53.31 52.16 50.75 49.84 53.67 52.14 47.80 44.12 49.44 55.42 54.75 56.90 56.58 56.60 56.21 55.30 56.42 57.11 57.17 53.08 51.56 50.05 51.48 48.84 50.07 52.23 51.64 50.71 46.57 51.96 57.48 57.69 59.05 59.61 59.91 60.42 61.79 60.99 61.15 61.38
54.39 54.22 53.83 53.58 53.21 52.16 51.31 52.34 53.38 54.67 47.52 43.20 45.28 49.32 53.48 56.27 55.76 56.30 56.55 55.93 56.14 54.58 52.65 51.51 49.41 52.73 53.46 53.97 52.99 51.98 52.09 49.44 50.31 50.03 56.83 54.87 58.54 60.02 59.70 59.18 59.39 60.41 59.75 60.55
54.11 53.74 53.57 53.09 52.64 51.29 50.86 46.83 54.69 55.51 52.95 44.84 43.80 52.91 53.64 56.59 55.41 55.51 55.52 55.65 55.66 55.02 52.25 51.76 53.22 56.95 53.57 49.11 48.13 55.20 56.11 57.18 55.54 54.68 55.07 59.47 59.08 60.15 60.27 58.66 58.58 59.89 60.07 61.57
53.23 52.86 52.50 52.44 52.07 50.80 47.62 48.16 51.39 50.10 52.54 46.37 46.04 47.99 53.39 56.38 54.79 53.79 53.86 56.73 54.61 53.07 51.65 51.21 51.58 51.63 53.37 50.74 46.71 54.65 56.02 58.05 58.32 59.52 59.45 56.99 57.65 56.14 58.24 59.03 59.65 59.66 61.28 62.57
52.79 52.06 51.58 51.10 51.17 49.69 47.46 52.64 51.53 51.83 50.40 49.50 43.61 47.50 51.13 55.50 50.76 50.16 54.11 52.22 53.78 53.19 51.18 51.59 50.90 52.12 52.36 48.96 53.91 57.15 57.94 58.14 57.25 56.90 57.39 56.21 57.90 58.98 58.89 59.58 59.37 58.82 60.05 61.81
51.92 51.34 50.98 50.60 48.03 48.58 51.70 53.64 51.66 51.67 49.97 46.22 45.77 43.30 44.46 54.32 51.33 52.83 53.93 53.84 48.69 52.89 49.94 49.91 51.54 49.06 47.93 53.69 54.97 56.72 57.26 56.70 56.17 57.41 56.43 56.46 57.11 57.04 58.54 59.47 60.62 59.96 60.08 61.04
50.76 48.52 43.95 45.57 52.14 52.47 51.90 50.48 47.83 47.80 49.09 48.47 43.13 48.53 45.76 50.90 51.23 51.42 52.13 51.26 48.83 47.44 50.76 51.74 48.69 48.50 55.94 56.50 58.02 58.37 57.63 56.91 56.07 54.41 54.34 56.45 54.22 56.99 57.66 59.11 60.09 60.16 59.05 59.28
46.29 43.62 42.32 52.25 51.55 51.11 48.30 45.78 45.59 47.37 45.07 48.10 46.25 46.14 44.61 52.72 49.62 49.81 52.33 50.73 50.50 46.24 49.20 49.05 48.01 48.84 53.50 57.50 57.72 58.01 56.50 56.81 56.36 57.19 57.40 58.16 58.89 58.45 58.77 58.24 58.39 58.02 57.12 55.45
47.36 47.47 49.46 52.85 48.24 47.26 44.38 43.45 46.63 46.20 44.87 49.10 44.91 45.49 48.17 52.36 56.07 52.69 52.74 49.36 51.35 45.16 53.95 49.48 46.41 54.23 57.34 57.16 57.36 57.63 57.33 57.84 57.73 58.30 59.21 59.02 59.34 59.54 58.91 59.42 58.56 57.92 57.65 57.01
48.57 47.68 45.88 46.07 46.13 39.04 40.33 39.40 43.57 44.67 48.75 48.99 46.99 44.79 48.39 53.26 54.86 52.90 50.14 46.93 46.92 53.19 48.75 46.81 52.37 57.79 57.99 58.06 57.56 57.63 58.95 58.78 58.33 58.06 59.02 59.19 58.83 59.26 59.39 58.49 58.48 59.97 57.98 58.98
44.94 43.37 37.40 42.32 41.66 44.16 45.51 46.11 47.33 50.48 50.77 50.12 48.73 45.98 48.79 51.18 50.37 50.98 47.25 50.07 50.97 46.01 43.79 45.84 54.88 57.68 58.04 57.71 57.54 57.30 57.33 58.04 58.11 58.38 58.72 58.39 58.88 57.64 59.20 58.96 58.91 59.24 59.15 59.39
44.42 46.65 38.87 43.34 47.97 49.57 49.56 51.08 50.86 51.94 52.93 51.80 47.93 46.67 47.86 49.30 47.52 50.02 46.60 46.50 44.09 45.70 45.92 53.19 56.27 58.96 58.42 57.86 58.66 58.25 57.13 57.79 57.73 58.25 58.10 58.42 57.52 56.51 56.54 59.80 59.75 59.52 58.27 58.07
45.57 47.08 45.52 48.17 47.04 47.25 48.89 50.25 50.23 53.60 52.95 51.58 48.74 45.17 44.96 44.96 48.12 46.06 44.74 43.69 42.16 46.88 53.84 56.71 58.42 59.53 59.39 59.02 58.57 58.57 58.63 58.36 58.42 57.93 58.57 58.55 58.95 56.90 58.70 60.10 59.54 57.30 58.22 57.90
43.41 46.28 50.17 49.94 48.24 48.23 50.05 50.81 50.79 53.80 50.68 46.94 47.09 42.47 43.31 48.19 45.66 44.64 48.12 45.41 50.41 53.04 55.22 57.96 61.22 60.47 59.30 59.42 58.57 56.45 57.11 56.79 56.51 57.07 57.61 57.87 59.18 59.25 59.02 57.64 58.61 58.21 57.82 58.17

GFSNW_sfc_wetblb_075.txt.gz
Wetbulb
57.25 55.93 54.55 53.06 51.82 50.44 49.01 47.32 44.32 56.73 56.88 46.73 47.15 44.36 47.56 48.34 48.59 49.67 48.36 48.66 47.46 46.31 47.14 45.54 45.88 45.93 49.37 53.23 52.00 48.36 51.82 48.12 44.28 46.30 51.21 53.03 50.91 48.67 48.21 41.16 39.35 42.16 41.12 41.84
56.91 55.85 54.59 53.04 51.75 51.05 45.34 44.09 47.60 55.04 53.53 41.38 42.63 46.52 48.14 49.77 49.37 47.84 47.38 46.68 48.30 48.70 46.17 43.28 47.50 48.20 51.44 52.67 51.62 50.85 49.94 46.72 42.46 41.15 46.41 49.78 48.31 50.10 48.37 46.28 44.01 41.38 39.15 43.76
56.72 55.58 54.54 53.54 52.40 52.14 47.18 44.35 43.81 49.61 51.39 50.98 46.97 45.17 45.86 47.24 51.11 50.46 50.68 47.77 47.95 46.31 44.88 46.83 45.72 47.72 50.70 52.37 51.58 60.00 54.50 47.05 45.82 40.82 44.77 48.68 47.50 49.70 49.17 44.75 41.42 42.74 43.87 48.49
56.48 55.56 54.54 53.96 52.92 52.33 47.38 47.23 47.32 49.36 44.93 46.01 48.01 49.65 49.71 47.71 46.91 50.24 52.19 50.07 48.12 46.05 42.12 44.45 44.43 47.34 48.79 51.52 54.93 53.72 51.05 44.79 49.66 48.60 50.46 50.76 49.55 49.09 49.53 47.71 46.13 45.65 46.75 51.85
56.44 55.38 54.45 53.97 52.84 51.21 46.11 44.65 45.21 46.69 44.48 46.98 46.97 47.72 48.21 49.12 48.78 49.27 48.91 47.92 50.31 50.42 46.06 46.67 45.43 47.04 45.75 46.96 50.96 50.70 52.75 46.41 48.21 48.16 51.73 50.59 50.18 52.50 52.48 53.18 53.95 52.37 53.03 53.01
56.22 55.40 54.49 53.66 52.59 49.74 48.42 50.89 50.73 47.23 44.13 44.20 44.76 47.58 50.12 50.40 51.49 52.17 52.45 51.01 49.46 49.02 51.07 53.55 53.83 52.62 51.07 49.40 47.69 49.79 49.22 46.32 44.39 43.46 49.42 49.41 45.61 53.39 55.66 55.26 53.82 55.00 50.62 54.78
56.24 55.50 54.57 53.51 53.19 50.90 48.44 48.53 48.02 44.86 40.37 43.08 44.74 48.26 51.20 50.61 51.41 49.42 52.00 52.59 50.58 53.80 57.22 56.48 55.73 53.72 52.22 51.82 50.60 52.89 49.10 45.97 45.25 43.77 46.39 39.03 48.77 54.67 57.11 53.03 54.72 55.37 53.85 55.99
56.60 55.60 54.65 53.65 53.07 52.71 48.30 49.14 46.88 45.57 40.50 43.56 44.48 47.81 48.09 49.38 51.44 51.32 51.15 54.07 55.35 55.79 54.15 49.71 46.57 46.73 47.33 48.92 51.18 50.19 49.79 46.90 41.29 41.57 41.01 46.16 52.68 50.50 51.81 50.92 47.67 55.82 54.16 53.83
56.54 55.76 54.59 53.82 52.94 52.59 49.18 48.41 50.45 48.83 42.55 41.50 45.78 43.62 46.67 46.11 46.21 48.11 50.24 54.60 55.60 55.19 51.16 48.20 41.80 40.85 45.17 44.41 46.41 48.69 48.52 47.72 44.66 44.22 40.13 39.55 50.64 52.39 55.07 53.69 46.42 56.46 58.06 53.98
56.56 55.94 54.79 53.88 53.01 52.61 49.39 48.73 50.52 48.50 42.97 45.56 45.63 42.56 43.43 47.45 47.30 46.27 50.18 48.95 50.79 53.79 49.52 46.49 43.92 43.06 48.95 44.49 43.70 46.07 46.42 46.33 43.68 43.98 41.84 48.49 54.26 54.11 55.57 45.14 48.31 58.74 58.59 58.81
56.30 55.66 54.91 54.15 52.93 53.16 50.68 48.54 51.15 49.12 44.72 45.50 47.59 48.01 45.74 46.95 47.29 44.61 47.73 47.81 50.46 49.89 47.13 45.92 45.16 45.33 46.62 46.96 48.13 45.09 45.03 43.46 43.97 44.85 41.77 39.91 57.09 55.92 52.26 54.81 56.91 58.35 58.33 58.28
55.70 55.43 55.01 53.96 53.39 53.15 51.28 45.94 53.01 53.30 48.26 45.68 49.36 48.85 49.31 48.13 47.99 46.25 47.29 49.17 51.13 51.29 49.25 48.81 48.65 45.20 47.53 45.56 42.53 48.55 44.66 48.29 45.84 46.41 47.13 54.84 56.59 55.45 57.78 57.57 56.31 57.14 57.74 58.26
55.48 55.29 54.85 54.32 53.83 53.42 50.94 47.77 49.40 50.25 48.05 46.68 46.43 46.52 50.97 52.08 50.53 50.81 44.18 52.16 54.21 51.78 53.55 50.95 48.87 45.90 47.84 44.58 45.48 47.63 49.52 51.38 49.79 48.99 53.56 54.99 55.86 57.23 57.99 58.24 57.67 58.41 59.06 59.05
55.14 55.23 54.99 54.34 53.60 52.94 51.34 47.78 50.56 49.45 48.36 41.45 44.98 51.99 47.88 52.17 52.98 51.67 51.09 50.38 55.04 53.14 51.19 49.05 48.01 47.58 51.68 47.66 47.71 47.99 50.58 51.39 47.89 49.72 53.66 55.87 54.04 56.08 58.01 59.35 59.63 58.92 58.70 60.43
55.00 54.77 54.46 53.85 53.44 52.56 51.25 50.23 50.73 52.35 47.58 40.64 41.96 46.28 48.99 52.87 52.42 53.76 54.63 53.03 53.37 50.67 49.01 48.82 48.44 49.28 50.22 51.01 50.10 49.03 51.99 49.40 48.79 46.98 52.31 51.12 50.52 55.77 58.48 56.48 56.39 57.83 56.32 59.41
54.66 54.37 53.86 53.44 53.11 52.14 48.96 44.21 53.52 52.89 53.22 43.90 38.47 49.04 49.52 52.41 54.77 52.99 52.97 53.55 53.08 52.18 49.72 48.48 50.42 52.44 51.09 45.40 44.79 52.01 53.44 54.18 55.45 53.95 54.68 53.45 53.67 55.59 58.57 56.80 57.39 58.14 56.59 59.59
53.78 53.23 52.67 52.59 52.45 50.13 47.02 45.65 50.27 50.52 49.98 43.70 41.66 45.19 52.38 52.88 54.21 51.83 51.78 53.15 52.26 51.65 49.52 47.96 48.57 49.18 49.32 47.69 44.73 52.63 54.58 55.28 55.91 56.78 56.27 55.15 55.28 52.72 56.02 57.13 58.59 58.26 59.63 60.94
53.02 52.36 51.79 51.60 51.20 49.48 46.35 50.47 50.30 50.95 47.55 47.39 41.78 43.53 48.63 55.89 49.52 47.47 51.58 49.39 51.10 51.54 48.81 49.21 47.01 49.09 49.29 43.95 52.57 53.58 53.73 55.10 54.96 56.14 56.41 53.36 55.44 56.38 57.84 59.49 59.54 58.74 58.52 59.34
52.05 51.67 50.94 49.55 46.47 46.47 51.25 54.04 53.40 52.21 48.19 42.60 45.28 41.04 41.92 52.59 51.46 50.62 50.79 51.61 46.67 51.10 47.39 47.40 47.93 46.90 44.45 50.86 52.50 53.96 54.23 54.76 53.87 54.81 54.79 55.57 55.82 57.00 57.59 58.03 58.75 56.86 56.77 58.10
50.85 48.16 43.90 42.72 48.48 53.27 52.10 49.01 46.65 44.95 45.79 45.29 41.96 46.80 43.06 49.72 50.26 48.60 50.34 50.63 45.82 44.30 46.91 49.96 46.13 44.69 53.15 54.77 56.00 55.44 54.62 54.37 53.93 50.95 51.45 53.71 55.22 56.30 56.48 56.29 57.38 57.03 55.99 56.57
46.29 43.54 42.32 50.24 52.66 50.84 48.23 45.02 43.95 44.88 43.52 46.08 45.74 45.25 42.07 49.36 46.35 45.90 50.61 48.85 48.64 43.84 47.51 46.15 45.25 47.18 52.48 55.87 55.16 55.19 54.76 54.75 53.59 54.06 54.13 56.18 57.26 56.26 54.95 56.06 56.36 55.68 55.34 54.46
45.88 47.29 49.97 51.67 47.58 45.91 43.57 42.89 45.55 44.61 42.99 48.55 46.05 46.32 44.58 46.43 49.68 48.08 51.90 48.18 49.48 45.15 52.67 47.92 44.98 51.34 54.12 54.78 55.36 55.70 55.51 56.96 56.71 58.11 57.22 57.75 58.04 57.60 57.27 56.70 56.09 55.42 55.43 56.71
48.69 47.91 46.23 45.76 44.60 37.71 39.39 37.85 41.33 43.51 48.59 49.97 48.26 45.59 47.71 51.33 53.26 51.41 49.55 46.30 45.61 51.39 48.11 44.69 49.94 54.69 56.10 55.55 55.81 55.70 56.48 57.43 57.89 57.91 58.29 57.97 57.73 58.01 54.03 53.48 55.49 57.76 56.70 57.09
43.95 42.32 36.20 40.82 39.79 42.05 42.82 44.12 46.25 49.59 50.70 50.14 49.60 47.65 47.03 49.95 48.93 49.70 43.50 46.24 48.70 44.43 41.88 45.77 51.57 55.07 55.28 55.65 56.39 56.43 56.14 57.30 57.07 57.43 57.89 57.41 56.89 55.14 54.88 55.65 56.76 55.04 56.67 56.98
44.23 45.38 37.43 40.92 45.65 47.65 48.79 49.76 49.52 51.66 52.66 51.79 48.42 47.78 46.59 46.40 49.36 49.23 47.16 44.78 43.60 45.68 46.16 51.26 54.40 55.96 55.95 56.33 57.18 55.31 56.51 56.40 56.20 56.72 56.51 56.58 55.23 53.50 53.48 53.99 53.44 54.22 56.83 56.23
45.94 45.71 43.24 45.94 45.82 45.82 47.60 49.52 48.39 52.30 52.81 52.59 49.73 46.42 44.07 45.85 47.01 44.12 43.66 42.15 42.14 47.64 53.50 55.03 56.67 57.11 57.45 57.12 56.83 56.06 56.44 56.41 56.10 56.00 56.61 56.87 56.79 55.84 55.24 54.12 56.97 54.39 56.58 56.21
43.27 43.25 47.71 46.45 46.27 47.68 49.05 50.69 50.04 54.20 51.55 47.27 47.68 42.54 42.48 47.08 42.99 42.79 46.33 45.48 49.39 53.65 54.74 55.86 58.43 57.48 57.74 56.50 55.05 55.76 55.37 54.82 54.33 54.67 55.21 54.67 55.40 56.21 56.34 54.47 55.77 56.22 56.14 55.16